S55UMX-6 Weather Reports


Display with metric or nautical units.
time (UTC)temp
F
wind
direction
speed
MPH
gust
MPH
rain 1hr
in
rain 24hr
in
rain mn
in
humidity
%
barometer
mb
20171125054136 43 248 0.0 0.0 0.00 0.00 0.00 64 941.1
20171125053636 43 248 0.0 0.0 0.00 0.00 0.00 63 941.2
20171125053136 43 248 0.0 0.0 0.00 0.00 0.00 63 941.2
20171125052636 43 248 0.0 0.0 0.00 0.00 0.00 62 941.4
20171125052136 44 248 0.0 0.0 0.00 0.00 0.00 62 941.3
20171125051634 44 248 0.0 0.0 0.00 0.00 0.00 62 941.4
20171125050636 44 248 0.0 0.0 0.00 0.00 0.00 62 941.3
20171125050136 44 248 0.0 0.0 0.00 0.00 0.00 62 941.3
20171125045634 44 248 0.0 0.0 0.00 0.00 0.00 62 941.4
20171125045137 44 248 0.0 0.0 0.00 0.00 0.00 62 941.4
20171125044634 44 158 0.0 0.0 0.00 0.00 0.00 62 941.5
20171125044136 44 359 0.0 0.0 0.00 0.00 0.00 61 941.5
20171125043634 44 158 0.0 0.0 0.00 0.00 0.00 60 941.7
20171125043136 44 158 0.0 0.0 0.00 0.00 0.00 60 941.7
20171125042637 44 359 0.0 0.0 0.00 0.00 0.00 60 941.8
20171125042137 44 293 0.0 0.0 0.00 0.00 0.00 60 941.8
20171125041634 44 293 0.0 0.0 0.00 0.00 0.00 60 941.8
20171125041137 44 293 0.0 0.0 0.00 0.00 0.00 59 941.7
20171125040634 44 158 0.0 0.0 0.00 0.00 0.00 59 941.8
20171125040137 44 158 0.0 0.0 0.00 0.00 0.00 59 941.9
20171125035636 45 158 0.0 0.0 0.00 0.00 0.00 59 942.0
20171125034634 44 158 0.0 0.0 0.00 0.00 0.00 59 942.0
20171125034136 44 158 0.0 0.0 0.00 0.00 0.00 58 942.0
20171125033635 44 158 0.0 0.0 0.00 0.00 0.00 57 942.0
20171125033137 44 158 0.0 0.0 0.00 0.00 0.00 58 942.2
20171125032636 45 158 0.0 0.0 0.00 0.00 0.00 57 942.3
20171125032136 44 158 0.0 0.0 0.00 0.00 0.00 58 942.3
20171125031635 44 158 0.0 0.0 0.00 0.00 0.00 58 942.4
20171125031136 44 338 0.0 0.0 0.00 0.00 0.00 58 942.4
20171125030636 44 338 0.0 0.0 0.00 0.00 0.00 58 942.4
20171125030136 44 338 0.0 0.0 0.00 0.00 0.00 59 942.4
20171125025637 44 338 0.0 0.0 0.00 0.00 0.00 59 942.3
20171125025136 44 338 0.0 0.0 0.00 0.00 0.00 59 942.5
20171125024637 44 338 0.0 0.0 0.00 0.00 0.00 60 942.6
20171125024136 44 180 0.0 0.0 0.00 0.00 0.00 60 942.5
20171125023637 44 180 0.0 0.0 0.00 0.00 0.00 59 942.6
20171125023135 45 180 0.0 0.0 0.00 0.00 0.00 59 942.5
20171125022635 45 180 0.0 0.0 0.00 0.00 0.00 59 942.6
20171125022135 45 180 0.0 0.0 0.00 0.00 0.00 60 942.6
20171125021635 44 180 0.0 0.0 0.00 0.00 0.00 59 942.7
20171125021135 44 180 0.0 0.0 0.00 0.00 0.00 59 942.7
20171125020636 44 180 0.0 0.0 0.00 0.00 0.00 59 942.9
20171125020135 45 180 0.0 0.0 0.00 0.00 0.00 59 943.0
20171125015635 45 180 0.0 0.0 0.00 0.00 0.00 59 942.9
20171125015137 45 180 0.0 0.0 0.00 0.00 0.00 58 943.1
20171125014635 45 180 0.0 0.0 0.00 0.00 0.00 57 943.1
20171125014137 45 180 0.0 0.0 0.00 0.00 0.00 57 943.2
20171125013635 45 180 0.0 0.0 0.00 0.00 0.00 57 943.4
20171125013135 46 180 0.0 0.0 0.00 0.00 0.00 58 943.5
20171125012636 46 359 0.0 0.0 0.00 0.00 0.00 58 943.4
20171125012137 46 359 0.0 0.0 0.00 0.00 0.00 58 943.6
20171125011635 46 338 0.0 0.0 0.00 0.00 0.00 58 943.5
20171125011138 46 338 0.0 0.0 0.00 0.00 0.00 59 943.5
20171125010635 46 248 0.0 0.0 0.00 0.00 0.00 58 943.8
20171125010136 46 248 0.0 0.0 0.00 0.00 0.00 57 943.8
20171125005635 46 248 0.0 0.0 0.00 0.00 0.00 57 943.8
20171125005138 46 248 0.0 0.0 0.00 0.00 0.00 57 943.8
20171125004635 46 248 0.0 0.0 0.00 0.00 0.00 57 943.9
20171125004137 46 248 0.0 0.0 0.00 0.00 0.00 58 943.9
20171125003638 46 248 0.0 0.0 0.00 0.00 0.00 58 943.8
20171125003137 46 248 0.0 0.0 0.00 0.00 0.00 57 943.8
20171125002635 46 248 0.0 0.0 0.00 0.00 0.00 58 943.7
20171125002137 46 203 0.0 0.0 0.00 0.00 0.00 59 943.8
20171125001637 46 203 0.0 0.0 0.00 0.00 0.00 59 943.8
20171125001135 46 315 0.0 0.0 0.00 0.00 0.00 59 943.8
20171125000638 46 338 0.0 0.0 0.00 0.00 0.00 59 943.8
20171125000137 47 338 0.0 0.0 0.00 0.00 0.00 60 943.9
20171124235635 47 338 0.0 0.0 0.00 0.00 0.00 59 943.8
20171124235137 47 293 0.0 0.0 0.00 0.00 0.00 59 943.8
20171124234638 47 293 0.0 0.0 0.00 0.00 0.00 58 943.8
20171124234137 47 338 0.0 0.0 0.00 0.00 0.00 58 943.9
20171124233637 47 338 0.0 0.0 0.00 0.00 0.00 58 943.8
20171124233137 47 293 0.0 0.0 0.00 0.00 0.00 58 943.8
20171124232635 47 270 0.0 0.0 0.00 0.00 0.00 57 943.9
20171124232137 47 270 0.0 0.0 0.00 0.00 0.00 57 944.0
20171124231635 47 270 0.0 0.0 0.00 0.00 0.00 57 944.1
20171124231136 47 270 0.0 0.0 0.00 0.00 0.00 57 944.1
20171124230635 47 270 0.0 0.0 0.00 0.00 0.00 56 944.2
20171124230136 47 270 0.0 0.0 0.00 0.00 0.00 55 944.1
20171124225637 47 270 0.0 0.0 0.00 0.00 0.00 54 944.2
20171124225138 47 270 0.0 0.0 0.00 0.00 0.00 54 944.4
20171124224635 47 270 0.0 0.0 0.00 0.00 0.00 54 944.4
20171124224135 47 270 0.0 0.0 0.00 0.00 0.00 54 944.5
20171124223635 48 270 0.0 0.0 0.00 0.00 0.00 54 944.6
20171124223135 48 270 0.0 0.0 0.00 0.00 0.00 54 944.5
20171124222635 48 270 0.0 0.0 0.00 0.00 0.00 53 944.5
20171124222137 48 270 0.0 0.0 0.00 0.00 0.00 53 944.6
20171124221637 48 270 0.0 0.0 0.00 0.00 0.00 53 944.7
20171124221135 48 270 0.0 0.0 0.00 0.00 0.00 53 944.7
20171124220636 48 270 0.0 0.0 0.00 0.00 0.00 53 945.0
20171124220136 48 270 0.0 0.0 0.00 0.00 0.00 53 945.1
20171124215637 48 270 0.0 0.0 0.00 0.00 0.00 53 945.0
20171124215137 48 270 0.0 0.0 0.00 0.00 0.00 53 945.0
20171124214636 48 270 0.0 0.0 0.00 0.00 0.00 53 945.1
20171124214137 48 359 0.0 0.0 0.00 0.00 0.00 53 945.1
20171124213636 48 270 0.0 0.0 0.00 0.00 0.00 53 945.1
20171124213136 49 270 0.0 0.0 0.00 0.00 0.00 52 945.1
20171124212636 49 270 0.0 0.0 0.00 0.00 0.00 52 945.1
20171124212136 49 270 0.0 0.0 0.00 0.00 0.00 52 945.1
20171124211637 49 270 0.0 0.0 0.00 0.00 0.00 52 945.1
20171124210636 49 270 0.0 0.0 0.00 0.00 0.00 52 945.3
20171124210138 49 270 0.0 0.0 0.00 0.00 0.00 52 945.2
20171124205636 49 270 0.0 0.0 0.00 0.00 0.00 53 945.3
20171124205136 48 270 0.0 0.0 0.00 0.00 0.00 53 945.3
20171124204636 49 359 0.0 0.0 0.00 0.00 0.00 53 945.4
20171124204137 49 359 0.0 0.0 0.00 0.00 0.00 54 945.5
20171124203641 49 270 0.0 0.0 0.00 0.00 0.00 54 945.6
20171124203136 49 270 0.0 0.0 0.00 0.00 0.00 52 945.7
20171124202636 49 270 0.0 0.0 0.00 0.00 0.00 52 945.7
20171124202136 49 270 0.0 0.0 0.00 0.00 0.00 52 945.7
20171124201136 49 270 0.0 0.0 0.00 0.00 0.00 52 945.6
20171124200138 49 270 0.0 0.0 0.00 0.00 0.00 52 945.7
20171124195638 49 270 0.0 0.0 0.00 0.00 0.00 52 945.7
20171124195138 49 270 0.0 0.0 0.00 0.00 0.00 52 945.6
20171124194137 49 270 0.0 0.0 0.00 0.00 0.00 52 945.9
20171124193636 49 270 0.0 0.0 0.00 0.00 0.00 52 945.9
20171124193136 49 270 0.0 0.0 0.00 0.00 0.00 52 945.9
20171124192639 49 270 0.0 0.0 0.00 0.00 0.00 52 946.0
20171124192136 49 270 0.0 0.0 0.00 0.00 0.00 52 945.9
20171124191636 49 270 0.0 0.0 0.00 0.00 0.00 52 945.9
20171124191138 49 270 0.0 0.0 0.00 0.00 0.00 52 945.9
20171124190636 49 270 0.0 0.0 0.00 0.00 0.00 52 946.0
20171124190138 49 270 0.0 0.0 0.00 0.00 0.00 52 946.1
20171124185636 49 270 0.0 0.0 0.00 0.00 0.00 52 946.0
20171124185212 49 270 0.0 0.0 0.00 0.00 0.00 52 946.1
20171124185136 49 270 0.0 0.0 0.00 0.00 0.00 52 946.1
20171124184638 49 270 0.0 0.0 0.00 0.00 0.00 52 946.1
20171124184138 49 270 0.0 0.0 0.00 0.00 0.00 52 946.1
20171124183636 49 270 0.0 0.0 0.00 0.00 0.00 52 946.1
20171124183138 49 270 0.0 0.0 0.00 0.00 0.00 52 946.0
20171124182638 49 270 0.0 0.0 0.00 0.00 0.00 52 946.1
20171124182139 49 270 0.0 0.0 0.00 0.00 0.00 52 946.1
20171124181639 49 270 0.0 0.0 0.00 0.00 0.00 52 946.1
20171124181136 49 270 0.0 0.0 0.00 0.00 0.00 52 946.0
20171124180636 49 270 0.0 0.0 0.00 0.00 0.00 53 946.1
20171124180136 49 270 0.0 0.0 0.00 0.00 0.00 53 946.1
20171124175638 49 270 0.0 0.0 0.00 0.00 0.00 53 946.0
20171124174636 49 270 0.0 0.0 0.00 0.00 0.00 53 946.2
20171124174138 49 270 0.0 0.0 0.00 0.00 0.00 53 946.1
20171124173639 49 270 0.0 0.0 0.00 0.00 0.00 53 946.1
20171124173136 49 359 0.0 0.0 0.00 0.00 0.00 53 946.1
20171124172642 49 359 0.0 0.0 0.00 0.00 0.00 54 946.1
20171124172136 49 270 0.0 0.0 0.00 0.00 0.00 53 946.1
20171124171638 49 270 0.0 0.0 0.00 0.00 0.00 53 946.0
20171124171138 49 270 0.0 0.0 0.00 0.00 0.00 53 946.0
20171124170140 49 270 0.0 0.0 0.00 0.00 0.00 53 946.0
20171124165639 49 270 0.0 0.0 0.00 0.00 0.00 53 946.1
20171124165139 49 270 0.0 0.0 0.00 0.00 0.00 53 946.1
20171124164639 49 270 0.0 0.0 0.00 0.00 0.00 53 946.1
20171124164146 49 270 0.0 0.0 0.00 0.00 0.00 53 946.1
20171124163205 49 270 0.0 0.0 0.00 0.00 0.00 53 946.1
20171124162638 49 270 0.0 0.0 0.00 0.00 0.00 53 946.1
20171124161638 49 270 0.0 0.0 0.00 0.00 0.00 53 946.0
20171124161138 49 270 0.0 0.0 0.00 0.00 0.00 53 945.9
20171124160638 50 270 0.0 0.0 0.00 0.00 0.00 53 946.0
20171124160142 50 270 0.0 0.0 0.00 0.00 0.00 52 946.1
20171124155637 50 270 0.0 0.0 0.00 0.00 0.00 52 945.9
20171124155143 50 270 0.0 0.0 0.00 0.00 0.00 53 945.8
20171124154638 50 270 0.0 0.0 0.00 0.00 0.00 53 945.9
20171124153639 51 270 0.0 0.0 0.00 0.00 0.00 53 945.9
20171124152638 51 270 0.0 0.0 0.00 0.00 0.00 53 945.9
20171124151639 51 270 0.0 0.0 0.00 0.00 0.00 51 945.9
20171124151140 52 270 0.0 0.0 0.00 0.00 0.00 51 945.9
20171124150639 52 270 0.0 0.0 0.00 0.00 0.00 51 946.0
20171124150139 52 270 0.0 0.0 0.00 0.00 0.00 51 945.9
20171124145639 52 270 0.0 0.0 0.00 0.00 0.00 51 946.2
20171124145209 52 203 0.0 0.0 0.00 0.00 0.00 51 946.1
20171124145138 52 203 0.0 0.0 0.00 0.00 0.00 51 946.1
20171124144638 52 203 0.0 0.0 0.00 0.00 0.00 51 946.0
20171124144141 52 293 0.0 0.0 0.00 0.00 0.00 52 946.0
20171124143638 53 315 0.0 0.0 0.00 0.00 0.00 53 945.9
20171124143139 53 315 0.0 0.0 0.00 0.00 0.00 53 946.0
20171124142638 54 293 0.0 0.0 0.00 0.00 0.00 52 946.1
20171124141639 54 293 0.0 0.0 0.00 0.00 0.00 52 946.1
20171124141140 55 293 0.0 0.0 0.00 0.00 0.00 52 946.1
20171124140639 55 293 0.0 0.0 0.00 0.00 0.00 51 946.0
20171124140138 55 293 0.0 0.0 0.00 0.00 0.00 51 946.0
20171124135638 56 248 0.0 0.0 0.00 0.00 0.00 51 945.9
20171124135139 56 248 0.0 0.0 0.00 0.00 0.00 50 946.0
20171124134639 56 248 0.0 0.0 0.00 0.00 0.00 50 946.0
20171124133713 57 203 0.0 0.0 0.00 0.00 0.00 50 946.3
20171124133639 57 203 0.0 0.0 0.00 0.00 0.00 50 946.3
20171124133139 57 203 0.0 0.0 0.00 0.00 0.00 50 946.1
20171124132639 57 203 0.0 0.0 0.00 0.00 0.00 50 945.9
20171124132140 58 203 0.0 0.0 0.00 0.00 0.00 49 946.2
20171124131638 58 338 0.0 0.0 0.00 0.00 0.00 49 946.2
20171124130139 59 338 0.0 0.0 0.00 0.00 0.00 48 946.3
20171124125639 59 338 0.0 0.0 0.00 0.00 0.00 49 946.2
20171124125139 59 338 0.0 0.0 0.00 0.00 0.00 48 946.2
20171124124641 60 338 0.0 0.0 0.00 0.00 0.00 47 946.2
20171124124141 61 338 0.0 0.0 0.00 0.00 0.00 46 946.3
20171124123639 62 338 0.0 0.0 0.00 0.00 0.00 46 946.3
20171124123139 63 338 0.0 0.0 0.00 0.00 0.00 45 946.3
20171124122640 64 338 0.0 0.0 0.00 0.00 0.00 45 946.3
20171124122139 63 315 0.0 0.0 0.00 0.00 0.00 45 946.3
20171124121641 63 315 0.0 0.0 0.00 0.00 0.00 45 946.3
20171124121139 63 315 0.0 0.0 0.00 0.00 0.00 45 946.5
20171124120639 64 315 0.0 0.0 0.00 0.00 0.00 45 946.4
20171124120139 65 315 0.0 0.0 0.00 0.00 0.00 45 946.3
20171124115642 64 315 0.0 0.0 0.00 0.00 0.00 46 946.5
20171124115139 64 359 0.0 0.0 0.00 0.00 0.00 47 946.5
20171124114639 65 338 0.0 0.0 0.00 0.00 0.00 47 946.4
20171124113215 65 338 0.0 0.0 0.00 0.00 0.00 47 946.5
20171124113140 65 338 0.0 0.0 0.00 0.00 0.00 47 946.5
20171124111640 64 338 0.0 0.0 0.00 0.00 0.00 49 946.5
20171124111139 63 338 0.0 0.0 0.00 0.00 0.00 50 946.5
20171124110639 62 315 0.0 0.0 0.00 0.00 0.00 51 946.5
20171124110139 60 315 0.0 0.0 0.00 0.00 0.00 52 946.6
20171124105639 58 315 0.0 0.0 0.00 0.00 0.00 53 946.6
20171124105139 56 315 0.0 0.0 0.00 0.00 0.00 53 946.6
20171124104639 53 315 0.0 0.0 0.00 0.00 0.00 55 946.6
20171124104139 53 359 0.0 0.0 0.00 0.00 0.00 54 946.8
20171124103639 54 359 0.0 0.0 0.00 0.00 0.00 53 946.7
20171124103139 54 293 0.0 0.0 0.00 0.00 0.00 53 946.8
20171124102638 55 338 0.0 0.0 0.00 0.00 0.00 52 946.9
20171124101139 58 338 0.0 0.0 0.00 0.00 0.00 51 947.0
20171124100640 59 338 0.0 0.0 0.00 0.00 0.00 51 947.0
20171124100139 59 338 0.0 0.0 0.00 0.00 0.00 52 947.0
20171124095640 58 338 0.0 0.0 0.00 0.00 0.00 53 946.9
20171124094139 51 338 0.0 0.0 0.00 0.00 0.00 58 947.2
20171124093140 49 338 0.0 0.0 0.00 0.00 0.00 57 947.4
20171124092638 49 338 0.0 0.0 0.00 0.00 0.00 58 947.3
20171124092140 49 338 0.0 0.0 0.00 0.00 0.00 59 947.2
20171124091638 49 338 0.0 0.0 0.00 0.00 0.00 56 947.2
20171124085709 48 315 0.0 0.0 0.00 0.00 0.00 57 947.2
20171124085638 48 315 0.0 0.0 0.00 0.00 0.00 57 947.2
20171124085140 48 315 0.0 0.0 0.00 0.00 0.00 57 947.2
20171124084640 48 315 0.0 0.0 0.00 0.00 0.00 56 947.2
20171124084140 49 315 0.0 0.0 0.00 0.00 0.00 56 947.1
20171124083640 49 315 0.0 0.0 0.00 0.00 0.00 54 947.2
20171124082638 49 315 0.0 0.0 0.00 0.00 0.00 54 946.9
20171124082140 48 203 0.0 0.0 0.00 0.00 0.00 55 946.9
20171124081640 48 203 0.0 0.0 0.00 0.00 0.00 55 947.0
20171124081138 48 203 0.0 0.0 0.00 0.00 0.00 55 947.0
20171124080640 48 203 0.0 0.0 0.00 0.00 0.00 54 947.0
20171124080138 49 203 0.0 0.0 0.00 0.00 0.00 53 947.1
20171124075638 49 203 0.0 0.0 0.00 0.00 0.00 52 947.2
20171124075140 49 203 0.0 0.0 0.00 0.00 0.00 52 947.3
20171124074640 49 203 0.0 0.0 0.00 0.00 0.00 52 947.2
20171124074140 49 203 0.0 0.0 0.00 0.00 0.00 51 947.2
20171124073640 49 203 0.0 0.0 0.00 0.00 0.00 51 947.1
20171124073138 49 203 0.0 0.0 0.00 0.00 0.00 51 947.3
20171124072640 49 203 0.0 0.0 0.00 0.00 0.00 51 947.3
20171124072140 49 203 0.0 0.0 0.00 0.00 0.00 50 947.3
20171124071641 49 203 0.0 0.0 0.00 0.00 0.00 50 947.2
20171124071140 49 203 0.0 0.0 0.00 0.00 0.00 50 947.2
20171124070640 49 203 0.0 0.0 0.00 0.00 0.00 50 947.3
20171124065640 49 203 0.0 0.0 0.00 0.00 0.00 50 947.1
20171124065140 49 203 0.0 0.0 0.00 0.00 0.00 50 947.1
20171124064640 49 203 0.0 0.0 0.00 0.00 0.00 50 947.0
20171124064139 49 203 0.0 0.0 0.00 0.00 0.00 50 947.1
20171124063640 49 203 0.0 0.0 0.00 0.00 0.00 50 947.0
20171124063139 49 203 0.0 0.0 0.00 0.00 0.00 50 947.0
20171124062640 49 203 0.0 0.0 0.00 0.00 0.00 50 947.1
20171124062141 49 203 0.0 0.0 0.00 0.00 0.00 50 947.0
20171124061639 49 203 0.0 0.0 0.00 0.00 0.00 50 947.0
20171124061142 49 203 0.0 1.0 0.00 0.00 0.00 50 946.9
20171124060641 49 203 0.0 0.0 0.00 0.00 0.00 50 946.9
20171124060140 49 203 0.0 0.0 0.00 0.00 0.00 50 947.0
20171124055640 49 203 0.0 0.0 0.00 0.00 0.00 50 947.0
20171124055139 49 359 0.0 0.0 0.00 0.00 0.00 50 946.9
20171124054639 49 359 0.0 0.0 0.00 0.00 0.00 50 946.9